Showing default

ICEYE-X43, 60539

Orbit data source: Space-Track

ICEYE-X43, 60539 is a Brazilian payload satellite in SSO that was launched on Fri, 16 Aug 2024 UTC via an FALCON 9 launch vehicle from the Air Force Western Test Range (AFWTR). Payload-class satellites include a variety of spacecraft equipped with specific instruments for various scientific and technological missions. These include communications satellites like Starlink; space stations such as the ISS; scientific satellites like the Hubble; Earth observation satellites from companies like Planet Labs, Umbra, and HawkEye 360; GPS; miniature CubeSats for education and research; and military/defense satellites.

Loading next visibility...
Identifier
60539, 2024-149BZ
Orbit
SSO
Country
Flag of UnknownUnknown / BRAZ
Related business
Manufacturer
ICEYE
Mission
Operational Commercial Radar Imaging
Bus & Motor
ICEYE, Unknown motor
Mass
80 kg wet, 80 kg dry
Launch date (UTC)
2024-08-16 (1 year ago)
Launch vehicle
FALCON 9
Launch site
Air Force Western Test Range (AFWTR)
Object type
Payload
Rocket body
Debris
Shape & HBR
Box + 1 Pan, 1.4 m
Radar Cross Section
0.776 m², Medium (>0.1 m² and < 1m²)

Expand to show TLE details & history
Last TLE update: 6 hours ago

TLE from 6 hours ago
0 ICEYE-X43
1 60539U 24149BZ  26035.17025794  .00004853  00000-0  40439-3 0  9997
2 60539  97.6925 113.9274 0004802 124.0524 236.1155 14.99081843 80189
Epoch: 2026-02-04T04:05Z
TLE epoch observation values (Epoch: 2026-02-04T04:05:10.286Z)
Latitude
-0.00003°
Longitude
-81.70614°
Altitude
574.647 km
Speed
7.572 km/s
True Right ascension
07h 35m 42s
True Declination
0° 00' 00"
Sunlit
Object was in full shadow at epoch
Visualization orbit readout
Latitude
Unknown
Longitude
Unknown
Altitude
Unknown
Speed
Unknown
Apparent Right ascension
Unknown
Apparent Declination
Unknown
Sunlit
N/A
Visualization observer readout
Local Sidereal Time
12:25:09
Azimuth
Unknown
Elevation
Unknown
Doppler factor
Unknown
Orbital elements
Apogee altitude
570.073 km
Perigee altitude
563.403 km
Semi-major axis
6,944.875 km
Eccentricity
0.00048
Inclination
97.6925°
RAAN
113.9274°
Arg. of periapsis
124.0524°
True anomaly
236.06983°
Mean anomaly
236.1155°
Eccentric anomaly
236.09267°
Mean motion
3.75013 °/min
Orbital period
96 mins
BSTAR
0.00040439
Loading maneuver chart data...
Computing Atmospheric mass density...
Loading historical data...
Loading historical data...
Loading historical data...
Loading historical data...
Loading historical data...
Loading historical data...
Loading historical data...

Documentation

Showing up to 5 results
|